User: anonymous   Login
Location: Castiglione Fibocchi
(43.5333°N, 11.7667°E)
Time: 18:30:21
(UTC+00:00)
Language:

Meteor 2-14 Rocket - Orbit

View from above orbital plane
View from above orbital plane
View from above satellite
View from above satellite

Ground track
Ground track

The orbit data is extracted from the following two-line orbital elements,

1 16736U 86039B   20296.04183129  .00000009  00000-0 -52357-5 0  9993
2 16736  82.5350 133.9489 0011669 263.5768  96.4064 13.84756054738937
Epoch (UTC): 22 October 2020 01:00:14
Eccentricity: 0.0011669
inclination: 82.5350°
perigee height: 938 km
apogee height: 955 km
right ascension of ascending node: 133.9489°
argument of perigee: 263.5768°
revolutions per day: 13.84756054
mean anomaly at epoch: 96.4064°
orbit number at epoch: 73893

The dashed part of the orbit path shows where the satellite is in the earth's shadow,  

DLR